| time (UTC) | temp F | wind direction | speed MPH | gust MPH | rain 1hr in | rain 24hr in | rain mn in | humidity % | barometer mb |
| 20260831103057 | 78 | 161 | 0.0 | 0.0 | 0.00 | 0.00 | 0.00 | 83 | 1012.4 |
| 20260831102555 | 78 | 161 | 0.0 | 1.0 | 0.00 | 0.00 | 0.00 | 83 | 1012.4 |
| 20260831102055 | 78 | 161 | 0.0 | 2.0 | 0.00 | 0.00 | 0.00 | 83 | 1012.5 |
| 20260831101556 | 78 | 161 | 1.0 | 2.0 | 0.00 | 0.00 | 0.00 | 83 | 1012.6 |
| 20260831101053 | 78 | 161 | 1.0 | 2.0 | 0.00 | 0.00 | 0.00 | 83 | 1012.6 |
| 20260831100554 | 78 | 161 | 0.0 | 1.0 | 0.00 | 0.00 | 0.00 | 82 | 1012.6 |
| 20260831100106 | 78 | 161 | 0.0 | 0.0 | 0.00 | 0.00 | 0.00 | 82 | 1012.5 |
| 20260831095557 | 78 | 161 | 0.0 | 0.0 | 0.00 | 0.00 | 0.00 | 82 | 1012.6 |
| 20260831095053 | 78 | 161 | 0.0 | 1.0 | 0.00 | 0.00 | 0.00 | 82 | 1012.6 |
| 20260831094553 | 78 | 161 | 0.0 | 1.0 | 0.00 | 0.00 | 0.00 | 82 | 1012.5 |
| 20260831094053 | 78 | 161 | 0.0 | 2.0 | 0.00 | 0.00 | 0.00 | 82 | 1012.5 |
| 20260831093552 | 78 | 161 | 0.0 | 3.0 | 0.00 | 0.00 | 0.00 | 82 | 1012.5 |
| 20260831093057 | 78 | 161 | 1.0 | 3.0 | 0.00 | 0.00 | 0.00 | 81 | 1012.5 |
| 20260831092551 | 78 | 161 | 0.0 | 3.0 | 0.00 | 0.00 | 0.00 | 81 | 1012.5 |
| 20260831092050 | 79 | 161 | 0.0 | 3.0 | 0.00 | 0.00 | 0.00 | 81 | 1012.6 |
| 20260831091551 | 79 | 161 | 0.0 | 2.0 | 0.00 | 0.00 | 0.00 | 81 | 1012.6 |
| 20260831091050 | 79 | 161 | 0.0 | 1.0 | 0.00 | 0.00 | 0.00 | 81 | 1012.6 |
| 20260831090550 | 79 | 161 | 0.0 | 2.0 | 0.00 | 0.00 | 0.00 | 81 | 1012.6 |
| 20260831090058 | 79 | 161 | 1.0 | 3.0 | 0.00 | 0.00 | 0.00 | 81 | 1012.6 |
| 20260831085553 | 79 | 161 | 1.0 | 3.0 | 0.00 | 0.00 | 0.00 | 81 | 1012.6 |
| 20260831085053 | 79 | 161 | 0.0 | 1.0 | 0.00 | 0.00 | 0.00 | 81 | 1012.6 |
| 20260831084548 | 79 | 161 | 0.0 | 0.0 | 0.00 | 0.00 | 0.00 | 81 | 1012.6 |
| 20260831084052 | 79 | 161 | 0.0 | 3.0 | 0.00 | 0.00 | 0.00 | 81 | 1012.7 |
| 20260831083548 | 79 | 161 | 0.0 | 3.0 | 0.00 | 0.00 | 0.00 | 81 | 1012.7 |
| 20260831083103 | 79 | 161 | 0.0 | 3.0 | 0.00 | 0.00 | 0.00 | 81 | 1012.6 |
| 20260831082548 | 79 | 161 | 1.0 | 3.0 | 0.00 | 0.00 | 0.00 | 81 | 1012.6 |
| 20260831082048 | 79 | 161 | 1.0 | 3.0 | 0.00 | 0.00 | 0.00 | 80 | 1012.7 |
| 20260831081556 | 79 | 161 | 0.0 | 3.0 | 0.00 | 0.00 | 0.00 | 80 | 1012.8 |
| 20260831081047 | 79 | 161 | 0.0 | 1.0 | 0.00 | 0.00 | 0.00 | 80 | 1012.8 |
| 20260831080546 | 79 | 161 | 0.0 | 2.0 | 0.00 | 0.00 | 0.00 | 80 | 1012.8 |
| 20260831080120 | 79 | 161 | 0.0 | 2.0 | 0.00 | 0.00 | 0.00 | 80 | 1012.8 |
| 20260831075545 | 79 | 161 | 0.0 | 3.0 | 0.00 | 0.00 | 0.00 | 80 | 1012.9 |
| 20260831075045 | 79 | 161 | 0.0 | 3.0 | 0.00 | 0.00 | 0.00 | 79 | 1012.9 |
| 20260831074545 | 79 | 138 | 0.0 | 2.0 | 0.00 | 0.00 | 0.00 | 79 | 1012.8 |
| 20260831074045 | 79 | 138 | 0.0 | 6.0 | 0.00 | 0.00 | 0.00 | 79 | 1012.7 |
| 20260831073544 | 79 | 134 | 1.0 | 6.0 | 0.00 | 0.00 | 0.00 | 79 | 1012.6 |
| 20260831073044 | 79 | 165 | 1.0 | 4.0 | 0.00 | 0.00 | 0.00 | 79 | 1012.6 |
| 20260831072543 | 79 | 146 | 1.0 | 4.0 | 0.00 | 0.00 | 0.00 | 79 | 1012.6 |
| 20260831072043 | 79 | 150 | 1.0 | 4.0 | 0.00 | 0.00 | 0.00 | 78 | 1012.6 |
| 20260831071546 | 80 | 173 | 1.0 | 4.0 | 0.00 | 0.00 | 0.00 | 78 | 1012.7 |
| 20260831071041 | 80 | 131 | 0.0 | 3.0 | 0.00 | 0.00 | 0.00 | 78 | 1012.7 |
| 20260831070545 | 80 | 134 | 0.0 | 4.0 | 0.00 | 0.00 | 0.00 | 78 | 1012.7 |
| 20260831070042 | 80 | 163 | 0.0 | 4.0 | 0.00 | 0.00 | 0.00 | 77 | 1012.8 |
| 20260831065541 | 80 | 167 | 2.0 | 5.0 | 0.00 | 0.00 | 0.00 | 77 | 1012.8 |
| 20260831065040 | 80 | 167 | 1.0 | 5.0 | 0.00 | 0.00 | 0.00 | 77 | 1012.8 |
| 20260831064540 | 80 | 160 | 0.0 | 5.0 | 0.00 | 0.00 | 0.00 | 77 | 1012.7 |
| 20260831064039 | 80 | 144 | 2.0 | 6.0 | 0.00 | 0.00 | 0.00 | 77 | 1012.8 |
| 20260831063538 | 80 | 141 | 1.0 | 7.0 | 0.00 | 0.00 | 0.00 | 76 | 1012.8 |
| 20260831063038 | 80 | 157 | 0.0 | 5.0 | 0.00 | 0.00 | 0.00 | 76 | 1012.9 |
| 20260831062537 | 80 | 103 | 2.0 | 6.0 | 0.00 | 0.00 | 0.00 | 76 | 1012.9 |
| 20260831062037 | 81 | 112 | 2.0 | 6.0 | 0.00 | 0.00 | 0.00 | 76 | 1012.8 |
| 20260831061539 | 81 | 169 | 2.0 | 5.0 | 0.00 | 0.00 | 0.00 | 75 | 1012.8 |
| 20260831061037 | 81 | 129 | 2.0 | 4.0 | 0.00 | 0.00 | 0.00 | 75 | 1012.8 |
| 20260831060536 | 81 | 164 | 1.0 | 7.0 | 0.00 | 0.00 | 0.00 | 75 | 1012.8 |
| 20260831060034 | 81 | 114 | 3.0 | 7.0 | 0.00 | 0.00 | 0.00 | 74 | 1012.8 |
| 20260831055534 | 81 | 148 | 1.0 | 4.0 | 0.00 | 0.00 | 0.00 | 74 | 1012.8 |
| 20260831055038 | 81 | 115 | 1.0 | 6.0 | 0.00 | 0.00 | 0.00 | 74 | 1012.7 |
| 20260831054533 | 81 | 171 | 1.0 | 11.0 | 0.00 | 0.00 | 0.00 | 73 | 1012.7 |
| 20260831054033 | 81 | 142 | 4.0 | 11.0 | 0.00 | 0.00 | 0.00 | 73 | 1012.7 |
| 20260831053532 | 82 | 94 | 2.0 | 8.0 | 0.00 | 0.00 | 0.00 | 72 | 1012.6 |
| 20260831053041 | 82 | 174 | 2.0 | 8.0 | 0.00 | 0.00 | 0.00 | 72 | 1012.6 |
| 20260831052530 | 82 | 132 | 2.0 | 10.0 | 0.00 | 0.00 | 0.00 | 71 | 1012.6 |
| 20260831052027 | 82 | 139 | 3.0 | 10.0 | 0.00 | 0.00 | 0.00 | 71 | 1012.5 |
| 20260831051532 | 82 | 100 | 2.0 | 8.0 | 0.00 | 0.00 | 0.00 | 70 | 1012.5 |
| 20260831051025 | 82 | 149 | 3.0 | 9.0 | 0.00 | 0.00 | 0.00 | 69 | 1012.5 |
| 20260831050525 | 83 | 108 | 3.0 | 11.0 | 0.00 | 0.00 | 0.00 | 68 | 1012.6 |
| 20260831050024 | 83 | 65 | 2.0 | 8.0 | 0.00 | 0.00 | 0.00 | 68 | 1012.5 |
| 20260831045523 | 83 | 96 | 3.0 | 8.0 | 0.00 | 0.00 | 0.00 | 67 | 1012.5 |
| 20260831045026 | 83 | 164 | 3.0 | 7.0 | 0.00 | 0.00 | 0.00 | 66 | 1012.4 |
| 20260831044545 | 83 | 165 | 3.0 | 9.0 | 0.00 | 0.00 | 0.00 | 66 | 1012.3 |
| 20260831044022 | 83 | 111 | 3.0 | 9.0 | 0.00 | 0.00 | 0.00 | 65 | 1012.4 |
| 20260831043525 | 84 | 96 | 3.0 | 10.0 | 0.00 | 0.00 | 0.00 | 65 | 1012.3 |
| 20260831043022 | 84 | 90 | 1.0 | 10.0 | 0.00 | 0.00 | 0.00 | 64 | 1012.3 |
| 20260831042523 | 84 | 156 | 2.0 | 11.0 | 0.00 | 0.00 | 0.00 | 64 | 1012.2 |
| 20260831042022 | 84 | 184 | 2.0 | 6.0 | 0.00 | 0.00 | 0.00 | 63 | 1012.1 |
| 20260831041531 | 84 | 142 | 1.0 | 9.0 | 0.00 | 0.00 | 0.00 | 63 | 1012.1 |
| 20260831041021 | 85 | 103 | 2.0 | 9.0 | 0.00 | 0.00 | 0.00 | 62 | 1012.1 |
| 20260831040521 | 85 | 109 | 1.0 | 6.0 | 0.00 | 0.00 | 0.00 | 62 | 1012.0 |
| 20260831040023 | 85 | 113 | 2.0 | 8.0 | 0.00 | 0.00 | 0.00 | 61 | 1011.9 |
| 20260831035521 | 85 | 130 | 2.0 | 10.0 | 0.00 | 0.00 | 0.00 | 61 | 1012.1 |
| 20260831035022 | 85 | 158 | 2.0 | 8.0 | 0.00 | 0.00 | 0.00 | 60 | 1012.1 |
| 20260831034521 | 86 | 136 | 3.0 | 8.0 | 0.00 | 0.00 | 0.00 | 60 | 1012.0 |
| 20260831034021 | 86 | 130 | 2.0 | 8.0 | 0.00 | 0.00 | 0.00 | 60 | 1011.9 |
| 20260831033521 | 86 | 142 | 2.0 | 10.0 | 0.00 | 0.00 | 0.00 | 59 | 1011.9 |
| 20260831033023 | 86 | 95 | 4.0 | 10.0 | 0.00 | 0.00 | 0.00 | 58 | 1011.8 |
| 20260831032520 | 86 | 138 | 1.0 | 10.0 | 0.00 | 0.00 | 0.00 | 58 | 1011.8 |
| 20260831032020 | 87 | 174 | 4.0 | 9.0 | 0.00 | 0.00 | 0.00 | 57 | 1011.7 |
| 20260831031531 | 87 | 148 | 2.0 | 9.0 | 0.00 | 0.00 | 0.00 | 57 | 1011.7 |
| 20260831031019 | 87 | 188 | 2.0 | 7.0 | 0.00 | 0.00 | 0.00 | 56 | 1011.7 |
| 20260831030521 | 87 | 69 | 2.0 | 11.0 | 0.00 | 0.00 | 0.00 | 56 | 1011.5 |
| 20260831030019 | 87 | 130 | 3.0 | 11.0 | 0.00 | 0.00 | 0.00 | 55 | 1011.4 |
| 20260831025518 | 87 | 88 | 3.0 | 11.0 | 0.00 | 0.00 | 0.00 | 55 | 1011.3 |
| 20260831025019 | 88 | 144 | 3.0 | 11.0 | 0.00 | 0.00 | 0.00 | 55 | 1011.2 |
| 20260831024519 | 88 | 158 | 3.0 | 11.0 | 0.00 | 0.00 | 0.00 | 55 | 1011.0 |
| 20260831024018 | 88 | 128 | 1.0 | 10.0 | 0.00 | 0.00 | 0.00 | 54 | 1011.0 |
| 20260831023518 | 88 | 157 | 2.0 | 10.0 | 0.00 | 0.00 | 0.00 | 54 | 1010.8 |
| 20260831023018 | 88 | 169 | 3.0 | 7.0 | 0.00 | 0.00 | 0.00 | 54 | 1010.8 |
| 20260831022518 | 89 | 151 | 2.0 | 11.0 | 0.00 | 0.00 | 0.00 | 54 | 1010.6 |
| 20260831022020 | 89 | 80 | 3.0 | 11.0 | 0.00 | 0.00 | 0.00 | 54 | 1010.5 |
| 20260831021519 | 89 | 141 | 1.0 | 10.0 | 0.00 | 0.00 | 0.00 | 54 | 1010.3 |
| 20260831021017 | 89 | 105 | 3.0 | 10.0 | 0.00 | 0.00 | 0.00 | 54 | 1010.3 |
| 20260831020517 | 89 | 86 | 3.0 | 9.0 | 0.00 | 0.00 | 0.00 | 54 | 1010.2 |
| 20260831020117 | 89 | 167 | 1.0 | 10.0 | 0.00 | 0.00 | 0.00 | 54 | 1010.2 |
| 20260831015517 | 90 | 102 | 2.0 | 10.0 | 0.00 | 0.00 | 0.00 | 53 | 1010.1 |
| 20260831015016 | 90 | 163 | 2.0 | 10.0 | 0.00 | 0.00 | 0.00 | 53 | 1010.1 |
| 20260831014518 | 90 | 140 | 3.0 | 9.0 | 0.00 | 0.00 | 0.00 | 53 | 1010.1 |
| 20260831014017 | 90 | 98 | 3.0 | 8.0 | 0.00 | 0.00 | 0.00 | 52 | 1009.9 |
| 20260831013515 | 90 | 191 | 3.0 | 14.0 | 0.00 | 0.00 | 0.00 | 52 | 1009.9 |
| 20260831013016 | 91 | 112 | 3.0 | 14.0 | 0.00 | 0.00 | 0.00 | 52 | 1009.9 |
| 20260831012516 | 91 | 170 | 2.0 | 8.0 | 0.00 | 0.00 | 0.00 | 52 | 1009.9 |
| 20260831012015 | 91 | 105 | 2.0 | 9.0 | 0.00 | 0.00 | 0.00 | 52 | 1009.8 |
| 20260831011516 | 91 | 132 | 3.0 | 9.0 | 0.00 | 0.00 | 0.00 | 52 | 1009.8 |
| 20260831011015 | 91 | 53 | 3.0 | 8.0 | 0.00 | 0.00 | 0.00 | 53 | 1009.7 |
| 20260831010514 | 91 | 54 | 2.0 | 10.0 | 0.00 | 0.00 | 0.00 | 53 | 1009.6 |
| 20260831010014 | 91 | 77 | 2.0 | 10.0 | 0.00 | 0.00 | 0.00 | 52 | 1009.6 |
| 20260831005515 | 91 | 159 | 2.0 | 10.0 | 0.00 | 0.00 | 0.00 | 52 | 1009.6 |
| 20260831005017 | 91 | 118 | 2.0 | 10.0 | 0.00 | 0.00 | 0.00 | 52 | 1009.4 |
| 20260831004514 | 92 | 119 | 4.0 | 13.0 | 0.00 | 0.00 | 0.00 | 51 | 1009.4 |
| 20260831004014 | 92 | 83 | 3.0 | 13.0 | 0.00 | 0.00 | 0.00 | 51 | 1009.3 |
| 20260831003518 | 93 | 154 | 3.0 | 13.0 | 0.00 | 0.00 | 0.00 | 50 | 1009.2 |
| 20260831003018 | 94 | 85 | 3.0 | 13.0 | 0.00 | 0.00 | 0.00 | 49 | 1009.2 |
| 20260831002512 | 94 | 95 | 2.0 | 9.0 | 0.00 | 0.00 | 0.00 | 46 | 1009.1 |
| 20260831002013 | 95 | 82 | 2.0 | 9.0 | 0.00 | 0.00 | 0.00 | 45 | 1009.0 |
| 20260831001513 | 95 | 66 | 3.0 | 12.0 | 0.00 | 0.00 | 0.00 | 45 | 1009.1 |
| 20260831001012 | 95 | 98 | 6.0 | 12.0 | 0.00 | 0.00 | 0.00 | 45 | 1009.1 |
| 20260831000512 | 96 | 63 | 5.0 | 12.0 | 0.00 | 0.00 | 0.00 | 44 | 1009.0 |
| 20260831000019 | 96 | 73 | 2.0 | 17.0 | 0.00 | 0.00 | 0.00 | 44 | 1009.1 |
| 20260830235512 | 96 | 49 | 5.0 | 17.0 | 0.00 | 0.00 | 0.00 | 43 | 1009.0 |
| 20260830235011 | 97 | 98 | 5.0 | 14.0 | 0.00 | 0.00 | 0.00 | 42 | 1008.9 |
| 20260830234512 | 97 | 86 | 6.0 | 11.0 | 0.00 | 0.00 | 0.00 | 41 | 1008.9 |
| 20260830234011 | 98 | 123 | 3.0 | 6.0 | 0.00 | 0.00 | 0.00 | 40 | 1008.9 |
| 20260830233511 | 97 | 206 | 3.0 | 10.0 | 0.00 | 0.00 | 0.00 | 41 | 1008.9 |
| 20260830233011 | 97 | 73 | 3.0 | 10.0 | 0.00 | 0.00 | 0.00 | 40 | 1008.9 |
| 20260830232511 | 98 | 107 | 3.0 | 13.0 | 0.00 | 0.00 | 0.00 | 40 | 1008.9 |
| 20260830232011 | 98 | 82 | 6.0 | 13.0 | 0.00 | 0.00 | 0.00 | 40 | 1008.8 |
| 20260830231515 | 98 | 69 | 5.0 | 11.0 | 0.00 | 0.00 | 0.00 | 39 | 1008.9 |
| 20260830231010 | 98 | 348 | 5.0 | 11.0 | 0.00 | 0.00 | 0.00 | 38 | 1008.9 |
| 20260830230509 | 99 | 34 | 2.0 | 4.0 | 0.00 | 0.00 | 0.00 | 38 | 1009.0 |
| 20260830230008 | 99 | 65 | 1.0 | 6.0 | 0.00 | 0.00 | 0.00 | 37 | 1009.0 |
| 20260830225508 | 99 | 90 | 2.0 | 7.0 | 0.00 | 0.00 | 0.00 | 37 | 1009.0 |
| 20260830225007 | 99 | 150 | 3.0 | 7.0 | 0.00 | 0.00 | 0.00 | 38 | 1009.1 |
| 20260830224508 | 99 | 148 | 2.0 | 8.0 | 0.00 | 0.00 | 0.00 | 37 | 1009.1 |
| 20260830224007 | 99 | 82 | 3.0 | 8.0 | 0.00 | 0.00 | 0.00 | 37 | 1009.1 |
| 20260830223507 | 99 | 99 | 3.0 | 7.0 | 0.00 | 0.00 | 0.00 | 36 | 1009.2 |
| 20260830223007 | 99 | 203 | 1.0 | 7.0 | 0.00 | 0.00 | 0.00 | 38 | 1009.2 |
| 20260830222506 | 98 | 158 | 2.0 | 6.0 | 0.00 | 0.00 | 0.00 | 38 | 1009.2 |
| 20260830222005 | 98 | 172 | 2.0 | 12.0 | 0.00 | 0.00 | 0.00 | 38 | 1009.3 |
| 20260830221505 | 99 | 183 | 4.0 | 12.0 | 0.00 | 0.00 | 0.00 | 38 | 1009.2 |
| 20260830221004 | 99 | 103 | 3.0 | 10.0 | 0.00 | 0.00 | 0.00 | 37 | 1009.3 |
| 20260830220504 | 99 | 59 | 3.0 | 10.0 | 0.00 | 0.00 | 0.00 | 36 | 1009.3 |
| 20260830220004 | 99 | 136 | 3.0 | 9.0 | 0.00 | 0.00 | 0.00 | 37 | 1009.3 |
| 20260830215504 | 98 | 143 | 5.0 | 10.0 | 0.00 | 0.00 | 0.00 | 38 | 1009.3 |
| 20260830215004 | 99 | 29 | 1.0 | 7.0 | 0.00 | 0.00 | 0.00 | 38 | 1009.3 |
| 20260830214502 | 99 | 161 | 1.0 | 9.0 | 0.00 | 0.00 | 0.00 | 38 | 1009.5 |
| 20260830214002 | 98 | 103 | 2.0 | 10.0 | 0.00 | 0.00 | 0.00 | 40 | 1009.5 |
| 20260830213502 | 99 | 115 | 3.0 | 13.0 | 0.00 | 0.00 | 0.00 | 38 | 1009.6 |
| 20260830213001 | 99 | 69 | 4.0 | 13.0 | 0.00 | 0.00 | 0.00 | 37 | 1009.7 |
| 20260830212600 | 100 | 107 | 1.0 | 7.0 | 0.00 | 0.00 | 0.00 | 38 | 1009.8 |
| 20260830212059 | 98 | 134 | 1.0 | 12.0 | 0.00 | 0.00 | 0.00 | 40 | 1009.9 |
| 20260830211606 | 98 | 112 | 5.0 | 12.0 | 0.00 | 0.00 | 0.00 | 40 | 1010.0 |
| 20260830211057 | 97 | 52 | 3.0 | 11.0 | 0.00 | 0.00 | 0.00 | 41 | 1010.1 |
| 20260830210558 | 100 | 88 | 2.0 | 8.0 | 0.00 | 0.00 | 0.00 | 40 | 1010.2 |
| 20260830210056 | 100 | 64 | 1.0 | 9.0 | 0.00 | 0.00 | 0.00 | 39 | 1010.2 |
| 20260830205558 | 98 | 173 | 3.0 | 10.0 | 0.00 | 0.00 | 0.00 | 40 | 1010.2 |
| 20260830205054 | 98 | 137 | 4.0 | 11.0 | 0.00 | 0.00 | 0.00 | 39 | 1010.3 |
| 20260830204554 | 98 | 182 | 5.0 | 11.0 | 0.00 | 0.00 | 0.00 | 40 | 1010.5 |
| 20260830204053 | 99 | 166 | 3.0 | 7.0 | 0.00 | 0.00 | 0.00 | 40 | 1010.5 |
| 20260830203552 | 98 | 163 | 2.0 | 7.0 | 0.00 | 0.00 | 0.00 | 41 | 1010.6 |
| 20260830203052 | 99 | 173 | 2.0 | 7.0 | 0.00 | 0.00 | 0.00 | 40 | 1010.7 |
| 20260830202552 | 98 | 222 | 1.0 | 11.0 | 0.00 | 0.00 | 0.00 | 42 | 1010.8 |
| 20260830202049 | 97 | 138 | 5.0 | 11.0 | 0.00 | 0.00 | 0.00 | 42 | 1010.9 |
| 20260830201547 | 98 | 113 | 2.0 | 9.0 | 0.00 | 0.00 | 0.00 | 42 | 1011.0 |
| 20260830201047 | 98 | 65 | 1.0 | 6.0 | 0.00 | 0.00 | 0.00 | 43 | 1011.1 |
| 20260830200548 | 96 | 111 | 2.0 | 8.0 | 0.00 | 0.00 | 0.00 | 45 | 1011.2 |
| 20260830200046 | 97 | 134 | 3.0 | 11.0 | 0.00 | 0.00 | 0.00 | 44 | 1011.3 |
| 20260830195545 | 97 | 175 | 1.0 | 10.0 | 0.00 | 0.00 | 0.00 | 43 | 1011.4 |
| 20260830195049 | 96 | 113 | 3.0 | 10.0 | 0.00 | 0.00 | 0.00 | 44 | 1011.4 |
| 20260830194543 | 96 | 150 | 3.0 | 7.0 | 0.00 | 0.00 | 0.00 | 45 | 1011.6 |
| 20260830194044 | 95 | 225 | 2.0 | 10.0 | 0.00 | 0.00 | 0.00 | 46 | 1011.7 |
| 20260830193541 | 95 | 169 | 2.0 | 9.0 | 0.00 | 0.00 | 0.00 | 46 | 1011.7 |
| 20260830193043 | 95 | 108 | 4.0 | 9.0 | 0.00 | 0.00 | 0.00 | 46 | 1011.8 |
| 20260830192540 | 94 | 61 | 2.0 | 10.0 | 0.00 | 0.00 | 0.00 | 48 | 1011.8 |
| 20260830192041 | 94 | 143 | 3.0 | 11.0 | 0.00 | 0.00 | 0.00 | 48 | 1011.9 |
| 20260830191539 | 95 | 193 | 7.0 | 13.0 | 0.00 | 0.00 | 0.00 | 47 | 1011.9 |
| 20260830191038 | 96 | 96 | 3.0 | 10.0 | 0.00 | 0.00 | 0.00 | 46 | 1012.0 |
| 20260830190537 | 95 | 49 | 2.0 | 8.0 | 0.00 | 0.00 | 0.00 | 47 | 1012.1 |
| 20260830190036 | 96 | 142 | 4.0 | 8.0 | 0.00 | 0.00 | 0.00 | 46 | 1012.2 |
| 20260830185540 | 95 | 71 | 1.0 | 6.0 | 0.00 | 0.00 | 0.00 | 47 | 1012.3 |
| 20260830185035 | 94 | 185 | 2.0 | 10.0 | 0.00 | 0.00 | 0.00 | 50 | 1012.4 |
| 20260830184540 | 94 | 74 | 3.0 | 10.0 | 0.00 | 0.00 | 0.00 | 49 | 1012.5 |
| 20260830184033 | 93 | 214 | 2.0 | 9.0 | 0.00 | 0.00 | 0.00 | 51 | 1012.5 |
| 20260830183534 | 96 | 187 | 3.0 | 12.0 | 0.00 | 0.00 | 0.00 | 47 | 1012.6 |
| 20260830183131 | 96 | 235 | 2.0 | 12.0 | 0.00 | 0.00 | 0.00 | 47 | 1012.8 |
| 20260830182534 | 95 | 189 | 4.0 | 8.0 | 0.00 | 0.00 | 0.00 | 48 | 1012.8 |
| 20260830182029 | 95 | 127 | 3.0 | 8.0 | 0.00 | 0.00 | 0.00 | 49 | 1012.8 |
| 20260830181529 | 94 | 47 | 2.0 | 8.0 | 0.00 | 0.00 | 0.00 | 50 | 1012.9 |
| 20260830181030 | 93 | 57 | 2.0 | 9.0 | 0.00 | 0.00 | 0.00 | 50 | 1013.0 |
| 20260830180529 | 94 | 89 | 4.0 | 8.0 | 0.00 | 0.00 | 0.00 | 50 | 1013.1 |
| 20260830180025 | 93 | 65 | 3.0 | 8.0 | 0.00 | 0.00 | 0.00 | 51 | 1013.2 |
| 20260830175526 | 93 | 71 | 3.0 | 8.0 | 0.00 | 0.00 | 0.00 | 50 | 1013.2 |
| 20260830175026 | 94 | 119 | 1.0 | 8.0 | 0.00 | 0.00 | 0.00 | 49 | 1013.3 |
| 20260830174525 | 94 | 111 | 1.0 | 10.0 | 0.00 | 0.00 | 0.00 | 50 | 1013.4 |
| 20260830174025 | 92 | 181 | 3.0 | 10.0 | 0.00 | 0.00 | 0.00 | 52 | 1013.3 |
| 20260830173527 | 94 | 128 | 3.0 | 6.0 | 0.00 | 0.00 | 0.00 | 50 | 1013.4 |
| 20260830173024 | 94 | 11 | 2.0 | 6.0 | 0.00 | 0.00 | 0.00 | 51 | 1013.6 |
| 20260830172524 | 93 | 112 | 2.0 | 9.0 | 0.00 | 0.00 | 0.00 | 53 | 1013.6 |
| 20260830172026 | 92 | 166 | 2.0 | 9.0 | 0.00 | 0.00 | 0.00 | 54 | 1013.7 |
| 20260830171522 | 92 | 136 | 1.0 | 9.0 | 0.00 | 0.00 | 0.00 | 55 | 1013.8 |
| 20260830171023 | 92 | 140 | 3.0 | 9.0 | 0.00 | 0.00 | 0.00 | 54 | 1013.9 |
| 20260830170521 | 93 | 134 | 3.0 | 11.0 | 0.00 | 0.00 | 0.00 | 55 | 1013.8 |
| 20260830170019 | 91 | 130 | 4.0 | 11.0 | 0.00 | 0.00 | 0.00 | 55 | 1013.9 |
| 20260830165518 | 89 | 195 | 3.0 | 8.0 | 0.00 | 0.00 | 0.00 | 59 | 1013.9 |
| 20260830165017 | 89 | 262 | 1.0 | 9.0 | 0.00 | 0.00 | 0.00 | 59 | 1014.1 |
| 20260830164516 | 89 | 67 | 1.0 | 7.0 | 0.00 | 0.00 | 0.00 | 60 | 1014.1 |
| 20260830164018 | 89 | 177 | 1.0 | 8.0 | 0.00 | 0.00 | 0.00 | 60 | 1014.1 |
| 20260830163515 | 89 | 131 | 3.0 | 8.0 | 0.00 | 0.00 | 0.00 | 60 | 1014.1 |
| 20260830163021 | 89 | 90 | 2.0 | 6.0 | 0.00 | 0.00 | 0.00 | 60 | 1014.1 |
| 20260830162514 | 89 | 109 | 2.0 | 6.0 | 0.00 | 0.00 | 0.00 | 60 | 1014.1 |
| 20260830162014 | 88 | 180 | 1.0 | 7.0 | 0.00 | 0.00 | 0.00 | 62 | 1014.1 |
| 20260830161511 | 87 | 205 | 4.0 | 8.0 | 0.00 | 0.00 | 0.00 | 63 | 1014.2 |
| 20260830161009 | 87 | 136 | 3.0 | 8.0 | 0.00 | 0.00 | 0.00 | 64 | 1014.2 |
| 20260830160509 | 86 | 167 | 1.0 | 8.0 | 0.00 | 0.00 | 0.00 | 65 | 1014.2 |
| 20260830160008 | 86 | 170 | 4.0 | 9.0 | 0.00 | 0.00 | 0.00 | 65 | 1014.3 |
| 20260830155508 | 87 | 221 | 4.0 | 8.0 | 0.00 | 0.00 | 0.00 | 65 | 1014.2 |
| 20260830155007 | 87 | 194 | 3.0 | 9.0 | 0.00 | 0.00 | 0.00 | 66 | 1014.2 |
| 20260830154506 | 87 | 257 | 4.0 | 9.0 | 0.00 | 0.00 | 0.00 | 66 | 1014.2 |
| 20260830154007 | 86 | 141 | 3.0 | 9.0 | 0.00 | 0.00 | 0.00 | 68 | 1014.2 |
| 20260830153504 | 86 | 172 | 5.0 | 9.0 | 0.00 | 0.00 | 0.00 | 67 | 1014.3 |
| 20260830153003 | 85 | 210 | 4.0 | 9.0 | 0.00 | 0.00 | 0.00 | 69 | 1014.2 |
| 20260830152502 | 85 | 155 | 3.0 | 9.0 | 0.00 | 0.00 | 0.00 | 68 | 1014.2 |
| 20260830152004 | 85 | 163 | 4.0 | 8.0 | 0.00 | 0.00 | 0.00 | 69 | 1014.2 |
| 20260830151502 | 86 | 195 | 5.0 | 9.0 | 0.00 | 0.00 | 0.00 | 68 | 1014.3 |
| 20260830151002 | 86 | 208 | 3.0 | 7.0 | 0.00 | 0.00 | 0.00 | 69 | 1014.3 |
| 20260830150600 | 85 | 259 | 2.0 | 11.0 | 0.00 | 0.00 | 0.00 | 70 | 1014.2 |
| 20260830150117 | 85 | 232 | 3.0 | 11.0 | 0.00 | 0.00 | 0.00 | 71 | 1014.2 |
| 20260830145557 | 84 | 219 | 3.0 | 9.0 | 0.00 | 0.00 | 0.00 | 72 | 1014.2 |
| 20260830145055 | 84 | 151 | 3.0 | 9.0 | 0.00 | 0.00 | 0.00 | 74 | 1014.2 |
| 20260830144554 | 83 | 155 | 3.0 | 7.0 | 0.00 | 0.00 | 0.00 | 74 | 1014.2 |
| 20260830144052 | 83 | 133 | 2.0 | 8.0 | 0.00 | 0.00 | 0.00 | 75 | 1014.1 |
| 20260830143551 | 82 | 75 | 4.0 | 10.0 | 0.00 | 0.00 | 0.00 | 76 | 1014.1 |
| 20260830143050 | 82 | 134 | 2.0 | 10.0 | 0.00 | 0.00 | 0.00 | 77 | 1014.2 |
| 20260830142550 | 82 | 169 | 3.0 | 8.0 | 0.00 | 0.00 | 0.00 | 78 | 1014.2 |
| 20260830142048 | 81 | 153 | 3.0 | 10.0 | 0.00 | 0.00 | 0.00 | 78 | 1014.2 |
| 20260830141549 | 81 | 224 | 2.0 | 10.0 | 0.00 | 0.00 | 0.00 | 79 | 1014.1 |
| 20260830141047 | 81 | 223 | 5.0 | 10.0 | 0.00 | 0.00 | 0.00 | 80 | 1014.1 |
| 20260830140546 | 80 | 155 | 3.0 | 9.0 | 0.00 | 0.00 | 0.00 | 80 | 1014.1 |
| 20260830140048 | 80 | 217 | 4.0 | 9.0 | 0.00 | 0.00 | 0.00 | 81 | 1014.1 |
| 20260830135546 | 80 | 207 | 4.0 | 10.0 | 0.00 | 0.00 | 0.00 | 82 | 1014.1 |
| 20260830135045 | 79 | 206 | 2.0 | 8.0 | 0.00 | 0.00 | 0.00 | 83 | 1014.0 |
| 20260830134546 | 79 | 205 | 2.0 | 8.0 | 0.00 | 0.00 | 0.00 | 83 | 1014.0 |
| 20260830134045 | 79 | 226 | 3.0 | 8.0 | 0.00 | 0.00 | 0.00 | 84 | 1014.0 |
| 20260830133542 | 79 | 186 | 1.0 | 8.0 | 0.00 | 0.00 | 0.00 | 84 | 1013.9 |
| 20260830133047 | 78 | 174 | 3.0 | 8.0 | 0.00 | 0.00 | 0.00 | 84 | 1013.9 |
| 20260830132542 | 78 | 178 | 2.0 | 8.0 | 0.00 | 0.00 | 0.00 | 84 | 1013.9 |
| 20260830132042 | 78 | 192 | 3.0 | 7.0 | 0.00 | 0.00 | 0.00 | 84 | 1013.9 |
| 20260830131541 | 78 | 165 | 2.0 | 7.0 | 0.00 | 0.00 | 0.00 | 85 | 1013.8 |
| 20260830131040 | 78 | 145 | 2.0 | 7.0 | 0.00 | 0.00 | 0.00 | 85 | 1013.8 |
| 20260830130542 | 78 | 193 | 1.0 | 6.0 | 0.00 | 0.00 | 0.00 | 85 | 1013.8 |
| 20260830130039 | 78 | 191 | 2.0 | 6.0 | 0.00 | 0.00 | 0.00 | 85 | 1013.7 |
| 20260830125539 | 78 | 177 | 0.0 | 8.0 | 0.00 | 0.00 | 0.00 | 85 | 1013.8 |
| 20260830125039 | 78 | 157 | 1.0 | 8.0 | 0.00 | 0.00 | 0.00 | 85 | 1013.7 |
| 20260830124536 | 78 | 207 | 0.0 | 6.0 | 0.00 | 0.00 | 0.00 | 85 | 1013.5 |
| 20260830124035 | 77 | 194 | 0.0 | 5.0 | 0.00 | 0.00 | 0.00 | 85 | 1013.4 |
| 20260830123535 | 77 | 215 | 1.0 | 6.0 | 0.00 | 0.00 | 0.00 | 84 | 1013.4 |
| 20260830123034 | 77 | 208 | 2.0 | 6.0 | 0.00 | 0.00 | 0.00 | 84 | 1013.3 |
| 20260830122534 | 77 | 196 | 1.0 | 5.0 | 0.00 | 0.00 | 0.00 | 84 | 1013.3 |
| 20260830122033 | 77 | 209 | 2.0 | 5.0 | 0.00 | 0.00 | 0.00 | 84 | 1013.3 |
| 20260830121537 | 77 | 184 | 1.0 | 6.0 | 0.00 | 0.00 | 0.00 | 84 | 1013.2 |
| 20260830121031 | 77 | 138 | 1.0 | 6.0 | 0.00 | 0.00 | 0.00 | 84 | 1013.3 |
| 20260830120532 | 77 | 208 | 1.0 | 5.0 | 0.00 | 0.00 | 0.00 | 84 | 1013.3 |
| 20260830120032 | 77 | 214 | 1.0 | 4.0 | 0.00 | 0.00 | 0.00 | 84 | 1013.3 |
| 20260830115532 | 77 | 136 | 2.0 | 4.0 | 0.00 | 0.00 | 0.00 | 84 | 1013.3 |
| 20260830115032 | 77 | 213 | 1.0 | 7.0 | 0.00 | 0.00 | 0.00 | 84 | 1013.3 |
| 20260830114531 | 77 | 185 | 2.0 | 7.0 | 0.00 | 0.00 | 0.00 | 84 | 1013.3 |
| 20260830114032 | 77 | 182 | 0.0 | 5.0 | 0.00 | 0.00 | 0.00 | 84 | 1013.2 |
| 20260830113531 | 77 | 174 | 1.0 | 4.0 | 0.00 | 0.00 | 0.00 | 84 | 1013.2 |
| 20260830113031 | 77 | 212 | 1.0 | 4.0 | 0.00 | 0.00 | 0.00 | 84 | 1013.3 |
| 20260830112531 | 77 | 173 | 1.0 | 4.0 | 0.00 | 0.00 | 0.00 | 83 | 1013.4 |
| 20260830112030 | 77 | 207 | 0.0 | 6.0 | 0.00 | 0.00 | 0.00 | 83 | 1013.3 |
| 20260830111530 | 77 | 180 | 1.0 | 4.0 | 0.00 | 0.00 | 0.00 | 83 | 1013.3 |
| 20260830111030 | 77 | 213 | 1.0 | 5.0 | 0.00 | 0.00 | 0.00 | 83 | 1013.3 |
| 20260830110531 | 78 | 130 | 2.0 | 5.0 | 0.00 | 0.00 | 0.00 | 83 | 1013.2 |
| 20260830110030 | 78 | 146 | 2.0 | 7.0 | 0.00 | 0.00 | 0.00 | 83 | 1013.2 |
| 20260830105529 | 78 | 207 | 3.0 | 7.0 | 0.00 | 0.00 | 0.00 | 83 | 1013.2 |
| 20260830105032 | 78 | 186 | 3.0 | 10.0 | 0.00 | 0.00 | 0.00 | 83 | 1013.1 |
| 20260830104529 | 78 | 163 | 4.0 | 10.0 | 0.00 | 0.00 | 0.00 | 83 | 1013.1 |
| 20260830104029 | 78 | 212 | 3.0 | 9.0 | 0.00 | 0.00 | 0.00 | 83 | 1013.1 |
| 20260830103529 | 78 | 134 | 4.0 | 8.0 | 0.00 | 0.00 | 0.00 | 83 | 1013.1 |